Joliet, IL

6:06 AM CDT on September 30, 2016 (GMT -0500)
Joliet Regional

Weather History for KJOT - May, 2013

Change the Weather History Date:

Wednesday, May 29, 2013

  Actual Average (KLOT) Record (KLOT)
Temperature  
Mean Temperature 72 °F 65 °F  
Max Temperature 83 °F 75 °F 92 °F (2006)
Min Temperature 62 °F 54 °F 39 °F (1992)
Degree Days  
Heating Degree Days 0 3  
Month to date heating degree days 186  
Since 1 July heating degree days 6180  
Cooling Degree Days 8 3  
Month to date cooling degree days 47  
Year to date cooling degree days 52  
Growing Degree Days 22 (Base 50)    
Moisture  
Dew Point 64 °F    
Average Humidity 74    
Maximum Humidity 94    
Minimum Humidity 56    
Precipitation  
Precipitation 0.06 in 0.15 in 0.67 in (2006)
Month to date precipitation 3.98  
Year to date precipitation 14.42  
Sea Level Pressure  
Sea Level Pressure 29.91 in    
Wind  
Wind Speed 6 mph (SSW)    
Max Wind Speed 13 mph    
Max Gust Speed 20 mph    
Visibility 10 miles    
Events Rain , Thunderstorm    
T = Trace of Precipitation, MM = Missing Value Source: NWS Daily Summary

Daily Weather History Graph

Daily Weather History Graph

Search for Another Location

Airport or City:

Trip Planner

Search our weather history database for the weather conditions in past years. The results will help you decide how hot, cold, wet, or windy it might be!

Date:

Astronomy

May. 29, 2013 Rise Set
Actual Time 5:22 AM CDT 8:18 PM CDT
Civil Twilight 4:49 AM CDT 8:51 PM CDT
Nautical Twilight 4:07 AM CDT 9:33 PM CDT
Astronomical Twilight 3:19 AM CDT 10:22 PM CDT
Moon No Moon Rise 10:23 AM CDT (5/29)
Length of Visible Light 16h 01m
Length of Day
14h 55m
Waning Gibbous, 73% of the Moon is Illuminated
May 29
Waning Gibbous
May 31
Last Quarter
Jun 8
New
Jun 16
First Quarter
Jun 23
Full

Hourly Weather History & Observations

Time (CDT) Temp. Heat Index Dew Point Humidity Pressure Visibility Wind Dir Wind Speed Gust Speed Precip Events Conditions
12:15 AM 66.2 °F - 63.1 °F 90% 29.86 in 10.0 mi SW 5.8 mph - N/A   Scattered Clouds
12:35 AM 65.7 °F - 63.1 °F 92% 29.86 in 10.0 mi SSW 3.5 mph - N/A   Scattered Clouds
12:55 AM 65.1 °F - 63.0 °F 93% 29.86 in 10.0 mi Calm Calm - N/A   Clear
1:15 AM 64.8 °F - 63.1 °F 94% 29.86 in 10.0 mi South 5.8 mph - N/A   Clear
1:35 AM 65.3 °F - 63.3 °F 93% 29.85 in 7.0 mi SSW 6.9 mph - 0.01 in Rain Rain
1:55 AM 65.5 °F - 63.5 °F 93% 29.82 in 7.0 mi South 10.4 mph - 0.02 in Rain , Thunderstorm Light Thunderstorms and Rain
2:15 AM 65.8 °F - 63.7 °F 93% 29.82 in 10.0 mi South 8.1 mph - N/A Rain Light Rain
2:35 AM 65.8 °F - 62.8 °F 90% 29.81 in 10.0 mi SE 4.6 mph - N/A Rain Light Rain
2:55 AM 65.3 °F - 62.8 °F 92% 29.82 in 10.0 mi SSW 3.5 mph - N/A   Scattered Clouds
3:15 AM 64.4 °F - 62.6 °F 94% 29.82 in 10.0 mi SSW 3.5 mph - N/A   Clear
3:35 AM 64.6 °F - 62.6 °F 93% 29.85 in 10.0 mi SW 3.5 mph - N/A   Clear
3:55 AM 66.2 °F - 60.4 °F 82% 29.86 in 10.0 mi West 4.6 mph - N/A   Clear
4:15 AM 65.3 °F - 61.2 °F 86% 29.87 in 10.0 mi WSW 5.8 mph - N/A   Clear
4:35 AM 64.9 °F - 61.2 °F 88% 29.90 in 10.0 mi SW 5.8 mph - N/A   Clear
4:55 AM 64.8 °F - 61.2 °F 88% 29.91 in 10.0 mi WSW 6.9 mph - N/A   Clear
5:15 AM 65.3 °F - 61.0 °F 86% 29.94 in 10.0 mi WSW 10.4 mph 19.6 mph N/A   Clear
5:35 AM 65.3 °F - 59.5 °F 82% 29.95 in 10.0 mi WSW 10.4 mph 18.4 mph N/A Rain Light Rain
5:55 AM 63.9 °F - 59.9 °F 87% 29.95 in 7.0 mi WSW 9.2 mph - 0.03 in Rain Rain
6:15 AM 62.2 °F - 59.9 °F 92% 29.87 in 10.0 mi East 8.1 mph - 0.01 in Rain Light Rain
6:35 AM 62.2 °F - 60.3 °F 93% 29.86 in 10.0 mi SE 3.5 mph - 0.01 in   Clear
6:55 AM 62.8 °F - 61.0 °F 94% 29.91 in 10.0 mi Calm Calm - 0.01 in   Scattered Clouds
7:15 AM 63.5 °F - 61.3 °F 93% 29.91 in 10.0 mi South 6.9 mph - N/A   Scattered Clouds
7:35 AM 65.5 °F - 62.1 °F 89% 29.92 in 10.0 mi South 8.1 mph - N/A   Scattered Clouds
7:55 AM 67.1 °F - 62.6 °F 85% 29.93 in 10.0 mi SSW 9.2 mph - N/A   Clear
8:15 AM 67.6 °F - 62.8 °F 84% 29.94 in 10.0 mi SSW 8.1 mph - N/A   Scattered Clouds
8:35 AM 68.9 °F - 63.1 °F 82% 29.95 in 10.0 mi SSW 6.9 mph - N/A   Scattered Clouds
8:55 AM 68.4 °F - 62.6 °F 82% 29.96 in 10.0 mi SSW 4.6 mph - N/A   Scattered Clouds
9:15 AM 68.5 °F - 62.8 °F 82% 29.97 in 10.0 mi Calm Calm - N/A   Mostly Cloudy
9:35 AM 69.4 °F - 63.1 °F 80% 29.97 in 10.0 mi Calm Calm - N/A   Mostly Cloudy
9:55 AM 69.6 °F - 63.0 °F 79% 29.97 in 10.0 mi NW 3.5 mph - N/A   Scattered Clouds
10:15 AM 70.2 °F - 63.5 °F 79% 29.96 in 10.0 mi Calm Calm - N/A   Clear
10:35 AM 72.3 °F - 64.4 °F 76% 29.97 in 10.0 mi Calm Calm - N/A   Clear
10:55 AM 73.9 °F - 65.5 °F 75% 29.96 in 10.0 mi SSE 3.5 mph - N/A   Clear
11:15 AM 75.4 °F - 65.8 °F 72% 29.96 in 10.0 mi SSW 6.9 mph - N/A   Scattered Clouds
11:35 AM 76.3 °F - 65.3 °F 69% 29.95 in 10.0 mi SSW 6.9 mph - N/A   Scattered Clouds
11:55 AM 77.2 °F - 66.0 °F 68% 29.95 in 10.0 mi SSW 8.1 mph - N/A   Clear
12:15 PM 77.9 °F - 66.4 °F 68% 29.95 in 10.0 mi SSW 6.9 mph - N/A   Clear
12:35 PM 78.8 °F - 67.1 °F 67% 29.94 in 10.0 mi South 12.7 mph - N/A   Clear
12:55 PM 79.7 °F - 66.7 °F 64% 29.94 in 10.0 mi SSW 6.9 mph 16.1 mph N/A   Clear
1:15 PM 79.7 °F - 67.8 °F 67% 29.94 in 10.0 mi SSW 6.9 mph - N/A   Scattered Clouds
1:35 PM 79.7 °F - 67.6 °F 66% 29.94 in 10.0 mi SSW 8.1 mph - N/A   Scattered Clouds
1:55 PM 81.3 °F 84.3 °F 68.5 °F 65% 29.94 in 10.0 mi SSW 12.7 mph - N/A   Clear
2:15 PM 80.2 °F 83.0 °F 68.5 °F 67% 29.94 in 10.0 mi SW 4.6 mph - N/A   Scattered Clouds
2:35 PM 80.6 °F 83.4 °F 68.4 °F 66% 29.93 in 10.0 mi SSW 8.1 mph - N/A   Clear
2:55 PM 83.3 °F 85.7 °F 66.4 °F 57% 29.92 in 10.0 mi SSW 11.5 mph 16.1 mph N/A   Scattered Clouds
3:15 PM 82.9 °F 85.4 °F 66.6 °F 58% 29.92 in 10.0 mi SSW 9.2 mph - N/A   Clear
3:35 PM 82.8 °F 85.1 °F 66.6 °F 58% 29.92 in 10.0 mi SSW 8.1 mph - N/A   Scattered Clouds
3:55 PM 81.1 °F 83.4 °F 66.4 °F 61% 29.91 in 10.0 mi SSW 10.4 mph - N/A   Scattered Clouds
4:15 PM 82.8 °F 85.5 °F 67.5 °F 60% 29.91 in 10.0 mi SSW 8.1 mph - N/A   Clear
4:35 PM 81.7 °F 84.0 °F 66.7 °F 60% 29.91 in 10.0 mi SSW 6.9 mph 16.1 mph N/A   Clear
4:55 PM 83.1 °F 85.4 °F 66.6 °F 57% 29.90 in 10.0 mi South 10.4 mph 18.4 mph N/A   Clear
5:15 PM 81.7 °F 83.8 °F 66.0 °F 59% 29.90 in 10.0 mi South 6.9 mph - N/A   Clear
5:35 PM 83.3 °F 85.7 °F 66.4 °F 57% 29.89 in 10.0 mi SSW 8.1 mph - N/A   Clear
5:55 PM 81.3 °F 83.2 °F 65.5 °F 58% 29.89 in 10.0 mi South 8.1 mph - N/A   Scattered Clouds
6:15 PM 81.7 °F 83.3 °F 64.8 °F 56% 29.89 in 10.0 mi South 9.2 mph 16.1 mph N/A   Clear
6:35 PM 81.5 °F 83.3 °F 65.1 °F 57% 29.89 in 10.0 mi South 12.7 mph 17.3 mph N/A   Clear
6:55 PM 81.0 °F 82.6 °F 64.2 °F 57% 29.89 in 10.0 mi South 6.9 mph - N/A   Clear
7:15 PM 79.7 °F - 64.4 °F 59% 29.89 in 10.0 mi South 5.8 mph - N/A   Clear
7:35 PM 78.8 °F - 64.2 °F 61% 29.90 in 10.0 mi South 3.5 mph - N/A   Clear
7:55 PM 77.4 °F - 64.8 °F 65% 29.90 in 10.0 mi SSE 4.6 mph - N/A   Clear
8:15 PM 77.2 °F - 65.3 °F 67% 29.90 in 10.0 mi SSE 5.8 mph - N/A   Clear
8:35 PM 76.8 °F - 65.5 °F 68% 29.90 in 10.0 mi SSE 9.2 mph - N/A   Clear
8:55 PM 77.0 °F - 64.9 °F 66% 29.89 in 10.0 mi South 6.9 mph - N/A   Clear
9:15 PM 76.5 °F - 64.6 °F 67% 29.90 in 10.0 mi South 8.1 mph - N/A   Clear
9:35 PM 76.1 °F - 64.2 °F 67% 29.90 in 10.0 mi South 5.8 mph - N/A   Clear
9:55 PM 75.2 °F - 63.7 °F 67% 29.91 in 10.0 mi South 5.8 mph - N/A   Clear
10:15 PM 75.2 °F - 63.1 °F 66% 29.92 in 10.0 mi South 6.9 mph - N/A   Clear
10:35 PM 74.5 °F - 62.6 °F 66% 29.93 in 10.0 mi South 4.6 mph - N/A   Clear
10:55 PM 73.6 °F - 62.4 °F 68% 29.94 in 10.0 mi South 4.6 mph - N/A   Clear
11:15 PM 73.9 °F - 61.3 °F 65% 29.94 in 10.0 mi South 6.9 mph - N/A   Clear
11:35 PM 73.6 °F - 61.2 °F 65% 29.94 in 10.0 mi South 6.9 mph - N/A   Clear
11:55 PM 73.4 °F - 60.8 °F 65% 29.95 in 10.0 mi South 6.9 mph - N/A   Clear